This is the latest recevied weather packets stored in our database for station/object K1RFS. If no packets are shown the sender has not sent any weather packets the latest 10 day(s).
| Time | Temp. | Humidity | Pressure | Rain* | Wind** | Luminosity | Snow |
|---|---|---|---|---|---|---|---|
| 1777666029 | 17.78° C | 23% | 1005.2 hPa | 0 mm | - | 655 W/m² | - |
| 1777665726 | 18.33° C | 22% | 1005 hPa | 0 mm | - | 655 W/m² | - |
| 1777665423 | 18.89° C | 21% | 1005.3 hPa | 0 mm | - | 660 W/m² | - |
| 1777665119 | 17.78° C | 24% | 1005.3 hPa | 0 mm | - | 665 W/m² | - |
| 1777664510 | 17.78° C | 23% | 1005.3 hPa | 0 mm | - | 667 W/m² | - |
| 1777664208 | 17.22° C | 23% | 1005.3 hPa | 0 mm | - | 668 W/m² | - |
| 1777663906 | 17.78° C | 22% | 1005 hPa | 0 mm | - | 669 W/m² | - |
| 1777663603 | 17.22° C | 22% | 1005.4 hPa | 0 mm | - | 670 W/m² | - |
| 1777663300 | 17.22° C | 23% | 1005.4 hPa | 0 mm | - | 672 W/m² | - |
| 1777662998 | 16.67° C | 22% | 1005.4 hPa | 0 mm | - | 671 W/m² | - |
| 1777662695 | 16.67° C | 23% | 1005.6 hPa | 0 mm | - | 669 W/m² | - |
| 1777662392 | 16.11° C | 23% | 1005.5 hPa | 0 mm | - | 668 W/m² | - |
| 1777662092 | 16.67° C | 23% | 1005.5 hPa | 0 mm | - | 667 W/m² | - |
| 1777661789 | 17.22° C | 24% | 1005.7 hPa | 0 mm | - | 666 W/m² | - |
| 1777661484 | 17.22° C | 22% | 1005.5 hPa | 0 mm | - | 662 W/m² | - |
| 1777660572 | 16.67° C | 25% | 1005.7 hPa | 0 mm | - | 654 W/m² | - |
| 1777660269 | 15.56° C | 25% | 1005.8 hPa | 0 mm | - | 651 W/m² | - |
| 1777659965 | 15.56° C | 25% | 1005.8 hPa | 0 mm | - | 648 W/m² | - |
| 1777659662 | 16.11° C | 25% | 1005.8 hPa | 0 mm | - | 643 W/m² | - |
| 1777659360 | 16.67° C | 26% | 1005.8 hPa | 0 mm | - | 637 W/m² | - |
| 1777659056 | 15.56° C | 26% | 1005.8 hPa | 0 mm | - | 635 W/m² | - |
| 1777658450 | 15.56° C | 25% | 1006.1 hPa | 0 mm | - | 621 W/m² | - |
| 1777657843 | 15° C | 27% | 1006.3 hPa | 0 mm | - | 607 W/m² | - |
| 1777657239 | 15° C | 28% | 1006.3 hPa | 0 mm | - | 595 W/m² | - |
| 1777656935 | 14.44° C | 29% | 1006.1 hPa | 0 mm | - | 39 W/m² | - |
* Rain latest hour (hover to see other rain measurements)
** Current wind speed in m/s (hover to see current wind gust speed)